Weather History for Wright-Patt AFB, OH

Change the Weather History Date:

Wednesday, March 6, 2013

  Actual Average Record
Temperature  
Mean Temperature 30 °F -  
Max Temperature 32 °F 43 °F 64 °F (2009)
Min Temperature 29 °F 24 °F 14 °F (2007)
Degree Days  
Heating Degree Days 34    
Moisture  
Dew Point 27 °F    
Average Humidity 85    
Maximum Humidity 94    
Minimum Humidity 77    
Precipitation  
Precipitation 0.03 in - - ()
Snow  
Snow 0.00 in - - ()
Snow Depth 3.00 in    
Sea Level Pressure  
Sea Level Pressure 29.94 in    
Wind  
Wind Speed 11 mph (NW)    
Max Wind Speed 17 mph    
Max Gust Speed 29 mph    
Visibility 7 miles    
Events Snow    
Averages and records for this station are not official NWS values.
T = Trace of Precipitation, MM = Missing Value Source: NWS Daily Summary

Daily Weather History Graph

Daily Weather History Graph

Search for Another Location

Airport:

Trip Planner

Search our weather history database for the weather conditions in past years. The results will help you decide how hot, cold, wet, or windy it might be!

Date:

Astronomy

Mar. 06, 2013 Rise Set
Actual Time 7:01 AM EST 6:33 PM EST
Civil Twilight 6:34 AM EST 7:00 PM EST
Nautical Twilight 6:03 AM EST 7:32 PM EST
Astronomical Twilight 5:31 AM EST 8:03 PM EST
Moon 3:09 AM EST (3/6) 1:15 PM EST (3/6)
Length of Visible Light 12h 26m
Length of Day
11h 32m
Waning Crescent, 30% of the Moon is Illuminated
Mar 6
Waning Crescent
Mar 11
New
Mar 19
First Quarter
Mar 27
Full
Apr 3
Last Quarter

Hourly Weather History & Observations

Time (EST) Temp. Windchill Dew Point Humidity Pressure Visibility Wind Dir Wind Speed Gust Speed Precip Events Conditions
12:55 AM 31.1 °F 23.1 °F 29.7 °F 94% 29.63 in 1.2 mi NNW 9.2 mph - 0.01 in Snow Light Snow
1:28 AM 30.2 °F 21.9 °F 28.4 °F 93% 29.64 in - NNW 9.2 mph - N/A Snow Light Snow
1:30 AM 30.2 °F 21.9 °F 28.4 °F 93% 29.65 in 2.0 mi NNW 9.2 mph - N/A Snow Light Snow
1:55 AM 30.7 °F 22.0 °F 28.8 °F 92% 29.65 in 2.5 mi NNW 10.4 mph - 0.00 in Snow Light Snow
2:43 AM 30.2 °F 20.2 °F 28.4 °F 93% 29.68 in 1.0 mi NNW 12.7 mph - N/A Snow Light Snow
2:55 AM 30.0 °F 20.0 °F 28.0 °F 92% 29.68 in - NNW 12.7 mph - 0.01 in Snow Light Snow
3:04 AM 30.2 °F 20.2 °F 28.4 °F 93% 29.68 in 1.2 mi NNW 12.7 mph - N/A Snow Light Snow
3:34 AM 30.2 °F 19.3 °F 28.4 °F 93% 29.69 in 2.0 mi NNW 15.0 mph - N/A Snow Light Snow
3:42 AM 30.2 °F 19.8 °F 28.4 °F 93% 29.70 in 2.0 mi NNW 13.8 mph 23.0 mph N/A Snow Light Snow
3:55 AM 30.0 °F 20.0 °F 27.9 °F 92% 29.70 in 2.5 mi NNW 12.7 mph 19.6 mph 0.01 in Snow Light Snow
4:34 AM 30.2 °F 19.3 °F 26.6 °F 86% 29.73 in 2.0 mi NNW 15.0 mph - N/A Snow Light Snow
4:55 AM 29.5 °F 18.0 °F 27.0 °F 90% 29.75 in 1.5 mi NNW 16.1 mph 28.8 mph 0.00 in Snow Light Snow
5:07 AM 30.2 °F 18.9 °F 26.6 °F 86% 29.76 in 2.5 mi NNW 16.1 mph 26.5 mph N/A Snow Light Snow
5:21 AM 30.2 °F 18.5 °F 26.6 °F 86% 29.77 in 7.0 mi NNW 17.3 mph - N/A Snow Light Snow
5:30 AM 30.2 °F 18.9 °F 26.6 °F 86% 29.78 in 7.0 mi NNW 16.1 mph 25.3 mph N/A Snow Light Snow
5:50 AM 30.2 °F 18.9 °F 26.6 °F 86% 29.79 in 10.0 mi NNW 16.1 mph 21.9 mph N/A   Overcast
5:55 AM 30.0 °F 18.7 °F 26.4 °F 86% 29.79 in 10.0 mi NNW 16.1 mph 24.2 mph 0.00 in   Overcast
6:55 AM 29.8 °F 19.3 °F 25.9 °F 85% 29.86 in 10.0 mi NNW 13.8 mph - 0.00 in   Overcast
7:55 AM 29.7 °F 19.1 °F 25.9 °F 86% 29.91 in 10.0 mi NNW 13.8 mph - N/A   Overcast
8:55 AM 29.7 °F 19.6 °F 25.7 °F 85% 29.97 in 10.0 mi NNW 12.7 mph - N/A   Overcast
9:55 AM 29.7 °F 19.1 °F 25.7 °F 85% 30.02 in 7.0 mi NW 13.8 mph 20.7 mph N/A   Overcast
10:55 AM 29.5 °F 18.0 °F 25.3 °F 85% 30.06 in 10.0 mi NNW 16.1 mph - N/A   Overcast
11:55 AM 30.7 °F 22.0 °F 26.1 °F 83% 30.10 in 10.0 mi NW 10.4 mph - N/A   Overcast
12:55 PM 31.6 °F 23.1 °F 26.6 °F 82% 30.12 in 10.0 mi NNW 10.4 mph - N/A   Overcast
1:55 PM 32.2 °F 23.2 °F 26.8 °F 80% 30.13 in 10.0 mi NW 11.5 mph - N/A   Overcast
2:55 PM 32.9 °F 25.3 °F 26.8 °F 78% 30.14 in 10.0 mi NW 9.2 mph - N/A   Overcast
3:55 PM 32.9 °F 25.3 °F 27.0 °F 79% 30.16 in 10.0 mi NW 9.2 mph - N/A   Overcast
4:55 PM 32.7 °F 24.5 °F 26.4 °F 78% 30.17 in 10.0 mi WNW 10.4 mph - N/A   Overcast
5:55 PM 32.4 °F 25.3 °F 25.9 °F 77% 30.20 in 10.0 mi NW 8.1 mph - N/A   Overcast
6:55 PM 32.0 °F 24.2 °F 25.7 °F 78% 30.23 in 10.0 mi WNW 9.2 mph - N/A   Overcast
7:55 PM 31.8 °F 23.9 °F 25.9 °F 79% 30.24 in 10.0 mi NW 9.2 mph - N/A   Overcast
8:55 PM 31.6 °F 25.1 °F 25.7 °F 79% 30.25 in 10.0 mi WNW 6.9 mph - N/A   Overcast
9:55 PM 31.5 °F 25.8 °F 25.7 °F 79% 30.26 in 10.0 mi West 5.8 mph - N/A   Overcast
10:55 PM 31.5 °F 26.8 °F 25.7 °F 79% 30.26 in 10.0 mi West 4.6 mph - N/A   Overcast
11:10 PM 32.0 °F - 26.6 °F 80% 30.26 in 10.0 mi Calm Calm - N/A   Overcast
11:22 PM 32.0 °F - 26.6 °F 80% 30.25 in 10.0 mi Calm Calm - N/A   Overcast
11:55 PM 30.7 °F - 26.1 °F 83% 30.25 in 10.0 mi Calm Calm - N/A   Overcast